NOAA 16 DEB, 42351

Orbit data source: Space-Track

NOAA 16 DEB, 42351 is space debris in SSO originally from a launch on Thu, 21 Sep 2000 UTC launched from the Air Force Western Test Range (AFWTR). Debris objects in space refer to the collection of defunct objects orbiting the Earth. Examples of debris include non-operational satellites, rocket bodies, and fragments generated from explosions, collisions, or faulty payload assembly.

Loading next visibility...
NOAA 16 DEB details
Identifier
42351, 2000-055QT
Orbit
SSO
Last TLE update1 month ago
Origin
Flag of USNOAA (US)
ManufacturerUnknown
MissionSpacecraft
Bus & MotorUnknown
MassUnknown
Launch date (UTC)
2000-09-21 (24 years ago)
Launch vehicleUnknown
Launch site
Air Force Western Test Range (AFWTR)
Object type
Payload
Rocket body
Debris
Shape & HBRUnknown
Radar Cross SectionSmall (<0.1 m²)

Expand to show TLE details & history

TLE from 1 month ago
0 NOAA 16 DEB
1 42351U 00055QT  24330.51450323  .00022764  00000-0  63675-2 0  9990
2 42351  98.6292  75.2931 0041607 234.8274 124.9017 14.45600810450752
Epoch: 2024-11-25T12:20Z
Definitive object data (Epoch: 2024-11-25T12:20:53.079Z)
Latitude0.00004°
Longitude-174.8658°
Altitude760.037 km
Speed7.465 km/s
True Right ascension05h 01m 10s
True Declination0° 00' 00"
Sunlit
Object was in full shadow at TLE epoch
Visualization TLE readout
Latitude-59.98565°
Longitude-128.25981°
Altitude785.476 km
Speed7.446 km/s
Apparent Right ascension00h 18m 38s
Apparent Declination-78° 34' 36"
Sunlit
Object is in daylight
Visualization observer readout
Local Sidereal Time09:35:55
Azimuth191.143° SSW
Elevation-48.086°
Doppler factor1
Orbital elements
Apogee altitude766.778 km
Perigee altitude707.569 km
Semi-major axis7,115.311 km
Eccentricity0.0041607
Inclination98.6292°
RAAN75.2931°
Arg. of periapsis234.8274°
True anomaly125.29156°
Mean anomaly124.9017°
Eccentric anomaly125.09675°
Mean motion3.6162 °/min
BSTAR0.0063675
Orbital period99.55 mins
Loading maneuver chart data...
Loading historical data...
Loading historical data...
Loading historical data...
Loading historical data...
Loading historical data...
Loading historical data...
Loading historical data...

NOAA 16 DEB Visibility forecast

Observer location: undefined°, undefined

Span
Click to sort rows by Start time (UTC) header in descending order
Start Az.
Max El. time (UTC)
Max El. Az.
Max El.
End time (UTC)
End Az.
7 mins2024-12-26 19:24:46.249Z38.036° NE2024-12-26 19:28:46.249Z101.607° ESE26.349°2024-12-26 19:31:46.249Z150.875° SSE
6 mins2024-12-26 21:04:46.249Z331.28° NNW2024-12-26 21:06:46.249Z294.076° NW24.629°2024-12-26 21:10:46.249Z235.795° WSW
7 mins2024-12-27 06:35:46.249Z123.495° SE2024-12-27 06:38:46.249Z60.146° ENE31.195°2024-12-27 06:42:46.249Z3.925° NNE
5 mins2024-12-27 08:14:46.249Z230.79° WSW2024-12-27 08:16:46.249Z263.187° W21.353°2024-12-27 08:19:46.249Z308.655° NW
|